{"data":{"norad_id":58294,"intl_designator":"2023-174AQ","name":"ICEYE-X34","alt_names":[],"object_type":"PAYLOAD","status":"ACTIVE","operator":null,"country":"US","launch_date":"2023-11-11","launch_site_code":"AFWTR","launch_vehicle":null,"mission":null,"orbit_class":"UNKNOWN","rcs_meters":null,"size_class":null,"mass_kg":null,"dimensions":null,"purposes":[],"wikipedia_slug":null,"has_3d_model":false,"image_url":null,"decayed_at":null,"tle_current":{"epoch":"2026-09-13T11:01:49.102176Z","epoch_age_seconds":847591,"freshness":"AGED","line1":"1 58294U 23174AQ  26256.45959609  .04747814  24791-5  11133-2 0  9997","line2":"2 58294  97.3836 353.9428 0014050 275.7221  84.2470 16.29503332159684","mean_motion":16.29503332,"eccentricity":0.001405,"inclination_deg":97.3836,"raan_deg":353.9428,"arg_perigee_deg":275.7221,"mean_anomaly_deg":84.247,"bstar":0.0011133,"rev_number":15968,"period_min":88.370485148538,"perigee_km":184.64119731235,"apogee_km":203.10855067827,"semimajor_km":6572.0118739953,"source":"CELESTRAK","updated_at":"2026-09-14T09:00:16.224795Z"}}}